Weather History for Winfield, KS

Change the Weather History Date:

Tuesday, February 5, 2013

  Actual Average Record
Temperature  
Mean Temperature 44 °F -  
Max Temperature 66 °F 44 °F 68 °F (2009)
Min Temperature 23 °F 25 °F 3 °F (2014)
Degree Days  
Heating Degree Days 20    
Moisture  
Dew Point 27 °F    
Average Humidity 56    
Maximum Humidity 89    
Minimum Humidity 21    
Precipitation  
Precipitation 0.00 in - - ()
Sea Level Pressure  
Sea Level Pressure 30.01 in    
Wind  
Wind Speed 4 mph (NNE)    
Max Wind Speed 10 mph    
Max Gust Speed 16 mph    
Visibility 9 miles    
Events      
Averages and records for this station are not official NWS values.
T = Trace of Precipitation, MM = Missing Value Source: NWS Daily Summary

Daily Weather History Graph

Daily Weather History Graph

Search for Another Location

Airport:

Trip Planner

Search our weather history database for the weather conditions in past years. The results will help you decide how hot, cold, wet, or windy it might be!

Date:

Astronomy

Feb. 05, 2013 Rise Set
Actual Time 7:27 AM CST 5:57 PM CST
Civil Twilight 7:00 AM CST 6:24 PM CST
Nautical Twilight 6:29 AM CST 6:55 PM CST
Astronomical Twilight 5:58 AM CST 7:26 PM CST
Moon 3:07 AM CST (2/5) 1:18 PM CST (2/5)
Length of Visible Light 11h 24m
Length of Day
10h 30m
Waning Crescent, 26% of the Moon is Illuminated
Feb 5
Waning Crescent
Feb 10
New
Feb 17
First Quarter
Feb 25
Full
Mar 4
Last Quarter

Hourly Weather History & Observations

Time (CST) Temp. Windchill Dew Point Humidity Pressure Visibility Wind Dir Wind Speed Gust Speed Precip Events Conditions
12:54 AM 34.0 °F 29.8 °F 27.0 °F 75% 29.96 in 10.0 mi East 4.6 mph - N/A   Clear
1:54 AM 34.0 °F 28.0 °F 27.0 °F 75% 29.94 in 10.0 mi SE 6.9 mph - N/A   Clear
2:54 AM 33.1 °F - 26.1 °F 75% 29.96 in 10.0 mi Calm Calm - N/A   Clear
3:54 AM 27.0 °F - 24.1 °F 89% 29.95 in 8.0 mi Calm Calm - N/A   Clear
4:54 AM 26.1 °F - 21.9 °F 84% 29.96 in 9.0 mi Calm Calm - N/A   Clear
5:54 AM 23.0 °F 17.0 °F 19.9 °F 88% 29.98 in 8.0 mi NNW 4.6 mph - N/A   Clear
6:54 AM 23.0 °F - 19.9 °F 88% 30.01 in 7.0 mi Calm Calm - N/A   Clear
7:54 AM 24.1 °F - 21.0 °F 88% 30.03 in 7.0 mi Calm Calm - N/A   Clear
8:54 AM 33.1 °F 30.0 °F 28.9 °F 85% 30.06 in 7.0 mi NNW 3.5 mph - N/A   Clear
9:54 AM 43.0 °F 39.5 °F 32.0 °F 65% 30.06 in 10.0 mi NNW 5.8 mph - N/A   Clear
10:54 AM 50.0 °F - 33.1 °F 52% 30.06 in 10.0 mi NW 5.8 mph - N/A   Clear
11:54 AM 57.0 °F - 32.0 °F 39% 30.04 in 10.0 mi West 9.2 mph - N/A   Clear
12:54 PM 62.1 °F - 30.0 °F 30% 30.02 in 10.0 mi WSW 10.4 mph 16.1 mph N/A   Clear
1:54 PM 64.9 °F - 28.0 °F 25% 30.01 in 10.0 mi WNW 6.9 mph - N/A   Clear
2:54 PM 66.9 °F - 26.1 °F 21% 29.99 in 10.0 mi North 8.1 mph - N/A   Clear
3:54 PM 66.0 °F - 25.0 °F 21% 29.99 in 10.0 mi Calm Calm - N/A   Clear
4:54 PM 64.9 °F - 25.0 °F 22% 30.00 in 10.0 mi NE 6.9 mph - N/A   Clear
5:54 PM 61.0 °F - 24.1 °F 24% 30.00 in 10.0 mi NE 3.5 mph - N/A   Clear
6:54 PM 55.9 °F - 25.0 °F 30% 30.03 in 10.0 mi East 4.6 mph - N/A   Clear
7:54 PM 52.0 °F - 27.0 °F 38% 30.04 in 10.0 mi ESE 4.6 mph - N/A   Clear
9:54 PM 42.1 °F - 27.0 °F 55% 30.06 in 10.0 mi Calm Calm - N/A   Clear
10:54 PM 46.0 °F 43.9 °F 30.0 °F 54% 30.06 in 10.0 mi East 4.6 mph - N/A   Clear
11:54 PM 43.0 °F 41.3 °F 30.0 °F 60% 30.06 in 10.0 mi ESE 3.5 mph - N/A   Clear